Flag for France Weather past 2 weeks in Royan, France

Now
70 °F

Mostly cloudy.


Feels Like: 70 °F
Forecast: 64 / 70 °F
Wind: 14 mph from West

Location: Cognac Airport

Current Time: Jul 7, 2015 at 10:05:45 PM

Latest Report: Jul 7, 2015 at 9:30 PM


Visibility: N/A

Pressure: 30.07 "Hg

Humidity: 78%

Dew point: 63 °F

Location of RoyanLocation

Historic Weather in Royan — Graph

°F

Royan temperature yesterday

Maximum temperature yesterday: 90 °F (at 6:30 PM)
Minimum temperature yesterday: 61 °F (at 5:00 AM)
Average temperature yesterday: 75 °F

Past Weeks' High & Low Weather Summary

 TemperatureHumidityPressure
High99 °F (Jun 30, 4:00 PM)100% (Jun 29, 6:30 AM)30.21 "Hg (Jun 29, 6:30 AM)
Low54 °F (Jun 24, 6:00 AM)22% (Jun 26, 3:30 PM)29.86 "Hg (Jun 30, 6:00 PM)
Average74 °F60%30.08 "Hg
* Reported Jun 22 9:00 PM — Jul 7 9:00 PM, Royan, Weather by CustomWeather, © 2015

Note: Actual official high and low records may vary slightly from our data, if they occured in-between our weather recording intervals... More about our weather records

Advertising

Royan weather history for previous 24 hours

 ConditionsComfort  
Time TempWeatherWind HumidityBarometerVisibility
9:00 PM
Tue, Jul 7
72 °FMostly cloudy.14 mph78%30.07 "HgN/A
8:30 PM70 °FCloudy.12 mph83%30.04 "HgN/A
8:00 PM72 °FOvercast.17 mph78%30.04 "HgN/A
7:30 PM75 °FPartly sunny.18 mph65%30.04 "HgN/A
7:00 PM77 °FMore clouds than sun.15 mph57%30.04 "HgN/A
6:30 PM77 °FPartly sunny.16 mph61%30.04 "HgN/A
6:00 PM79 °FPartly sunny.17 mph58%30.04 "HgN/A
5:30 PM79 °FPartly sunny.17 mph54%30.04 "HgN/A
5:00 PM79 °FPartly sunny.16 mph54%30.04 "HgN/A
4:30 PM79 °FPassing clouds.17 mph54%30.04 "HgN/A
4:00 PM79 °FPassing clouds.16 mph54%30.04 "HgN/A
3:30 PM79 °FSunny.18 mph51%30.04 "Hg10 mi
3:00 PM79 °FScattered clouds.20 mph48%30.04 "HgN/A
2:30 PM81 °FScattered clouds.16 mph51%30.04 "HgN/A
2:00 PM81 °FPassing clouds.16 mph51%30.01 "HgN/A
1:30 PM81 °FPassing clouds.14 mph51%30.01 "HgN/A
1:00 PM81 °FPassing clouds.10 mph54%30.01 "HgN/A
12:30 PM79 °FPassing clouds.12 mph54%30.01 "HgN/A
12:00 PM77 °FSunny.9 mph57%30.01 "Hg10 mi
11:30 AM75 °FSunny.5 mph57%29.98 "Hg10 mi
11:00 AM75 °FPassing clouds.7 mph57%29.98 "HgN/A
10:30 AM75 °FPassing clouds.7 mph57%29.98 "HgN/A
10:00 AM73 °FPassing clouds.8 mph61%29.98 "HgN/A
9:30 AM72 °FSunny.9 mph61%29.98 "Hg10 mi
9:00 AM72 °FPassing clouds.7 mph61%29.98 "HgN/A
8:30 AM72 °FPassing clouds.7 mph65%29.98 "HgN/A
8:00 AM70 °FPassing clouds.6 mph64%29.98 "HgN/A
7:30 AM68 °FPassing clouds.5 mph69%29.95 "HgN/A
7:00 AM68 °FPassing clouds.5 mph69%29.95 "HgN/A
6:30 AM68 °FPassing clouds.8 mph69%29.95 "HgN/A
6:00 AM68 °FPassing clouds.5 mph73%29.95 "HgN/A
5:30 AM68 °FClear.7 mph73%29.95 "Hg10 mi
4:30 AM68 °FClear.2 mph78%29.95 "Hg10 mi
4:00 AM68 °FClear.5 mph78%29.95 "Hg10 mi
3:30 AM70 °FClear.3 mph73%29.95 "Hg10 mi
3:00 AM70 °FClear.2 mph73%29.98 "Hg10 mi
2:30 AM72 °FClear.3 mph69%29.98 "Hg10 mi
2:00 AM72 °FClear.3 mph69%29.98 "Hg10 mi
1:30 AM73 °FClear.2 mph65%29.98 "Hg10 mi
1:00 AM75 °FClear.2 mph61%29.98 "Hg10 mi
12:30 AM75 °FClear.No wind61%29.98 "Hg10 mi
12:00 AM77 °FClear.1 mph57%29.98 "Hg10 mi
11:30 PM
Mon, Jul 6
79 °FClear.3 mph54%29.98 "Hg10 mi
11:00 PM81 °FClear.5 mph51%29.98 "Hg10 mi
10:30 PM81 °FSunny.6 mph51%29.98 "Hg10 mi
10:00 PM82 °FSunny.5 mph48%29.98 "Hg10 mi
Weather by CustomWeather, © 2015

See weather overviewHow to use our weather pages